Amateur Radio Satellites - All Passes

Search period start: 19 May 2013 23:21
Search period end: 20 May 2013 23:21
Location: South Tamworth Observatory, 43.8246°N, 71.3026°W

Satellite Date Start Highest point End Downlink Frequencies (MHz)
Time Altitude Azimuth
RS-15 19 May 23:56:58 00:07:12 37° 30° (NNE) 00:17:03 29.354 - 29.394 USB, Beacon 29.352 USB
MaSat-1 20 May 00:47:02 00:48:37 11° 99° (E) 00:50:08 437.345 MHz
KITSAT 1 20 May 01:09:12 01:16:54 47° 313° (NW) 01:24:42 435.175 FM
Oscar 16 20 May 01:17:26 01:20:14 15° 89° (E) 01:23:00 437.025 USB, Beacon 2401.1428
AO-27 20 May 01:20:19 01:21:27 11° 87° (E) 01:22:35 436.795 MHz FM
ITAMSAT 1 20 May 01:26:53 01:29:02 12° 88° (E) 01:31:11 435.822 SSB
Oscar 10/S400 20 May 01:31:48 05:38:56 24° 84° (E) 07:43:28 145.825 - 145.975 CW/USB, Beacon 145.810 USB
Uribyol 2 20 May 02:06:46 02:11:25 31° 96° (E) 02:16:02 436.500 FM
RS-15 20 May 02:09:48 02:21:01 86° 238° (WSW) 02:31:53 29.354 - 29.394 USB, Beacon 29.352 USB
Oscar 19 20 May 02:16:18 02:21:15 43° 98° (E) 02:26:08 437.125 CW, 437.150 USB
MaSat-1 20 May 02:23:03 02:30:08 63° 113° (ESE) 02:36:01 437.345 MHz
AO-Echo 20 May 02:45:23 02:49:06 23° 94° (E) 02:52:51 ?
Oscar 16 20 May 02:54:58 03:00:09 73° 286° (WNW) 03:05:17 437.025 USB, Beacon 2401.1428
AO-27 20 May 02:56:29 03:01:44 86° 104° (ESE) 03:06:58 436.795 MHz FM
ITAMSAT 1 20 May 03:03:57 03:09:12 84° 285° (WNW) 03:14:26 435.822 SSB
Gurwin Techsat 1B 20 May 03:05:07 03:07:39 13° 88° (E) 03:10:11 435.225 FM
KITSAT 1 20 May 03:09:24 03:14:39 18° 340° (NNW) 03:19:57 435.175 FM
Uribyol 2 20 May 03:46:11 03:50:55 35° 293° (WNW) 03:55:38 436.500 FM
Oscar 19 20 May 03:56:09 04:00:22 26° 296° (WNW) 04:04:34 437.125 CW, 437.150 USB
MaSat-1 20 May 04:06:48 04:12:36 29° 307° (NW) 04:17:31 437.345 MHz
ISS 20 May 04:10:06 04:13:23 60° 144° (SE) 04:16:41 145.800 FM
Uosat F 20 May 04:13:20 04:18:22 68° 102° (ESE) 04:23:22 435.120 FM
TMSAT-1 20 May 04:23:04 04:28:12 47° 99° (E) 04:33:17 436.925 FM
AO-7 20 May 04:23:06 04:28:56 20° 90° (E) 04:34:43 29.400 - 29.500 MHz
AO-Echo 20 May 04:23:39 04:28:04 41° 290° (WNW) 04:32:32 ?
RS-15 20 May 04:24:04 04:31:36 22° 260° (W) 04:39:05 29.354 - 29.394 USB, Beacon 29.352 USB
STRAND 1 20 May 04:32:03 04:33:14 11° 55° (NE) 04:34:25 ?
Oscar 16 20 May 04:37:19 04:38:36 11° 305° (NW) 04:39:53 437.025 USB, Beacon 2401.1428
AO-27 20 May 04:37:50 04:40:33 15° 302° (WNW) 04:43:17 436.795 MHz FM
Gurwin Techsat 1B 20 May 04:42:56 04:48:16 81° 285° (WNW) 04:53:35 435.225 FM
ITAMSAT 1 20 May 04:45:41 04:47:55 13° 303° (WNW) 04:50:09 435.822 SSB
KITSAT 1 20 May 05:09:29 05:13:59 15° 11° (N) 05:18:29 435.175 FM
ISS 20 May 05:47:17 05:50:17 30° 342° (NNW) 05:53:18 145.800 FM
Uosat F 20 May 05:53:30 05:56:38 17° 300° (WNW) 05:59:46 435.120 FM
TMSAT-1 20 May 06:03:35 06:07:51 25° 296° (WNW) 06:12:07 436.925 FM
STRAND 1 20 May 06:06:28 06:11:32 74° 73° (ENE) 06:16:39 ?
AO-7 20 May 06:14:18 06:22:43 88° 289° (WNW) 06:31:06 29.400 - 29.500 MHz
Gurwin Techsat 1B 20 May 06:25:16 06:27:24 13° 304° (NW) 06:29:32 435.225 FM
Saudisat 1A 20 May 06:31:41 06:36:11 61° 121° (ESE) 06:40:45 436.775 MHz
KITSAT 1 20 May 07:05:11 07:12:24 33° 39° (NE) 07:19:35 435.175 FM
JAS-1B 20 May 07:15:28 07:18:44 15° 86° (E) 07:21:51 435.800 - 435.900 CW/SSB
PCSat 20 May 07:22:45 07:27:17 28° 109° (ESE) 07:31:51 145.825 MHz
ISS 20 May 07:25:04 07:27:43 21° 3° (N) 07:30:22 145.800 FM
Hamsat 20 May 07:40:15 07:44:33 57° 100° (E) 07:48:51 145.90 MHz
STRAND 1 20 May 07:48:41 07:51:18 14° 271° (W) 07:53:55 ?
Sapphire 20 May 07:54:45 07:59:56 50° 114° (ESE) 08:05:09 437.095 MHz 1200 baud AX-25 AFSK
AO-7 20 May 08:08:21 08:14:27 23° 310° (NW) 08:20:34 29.400 - 29.500 MHz
Saudisat 1A 20 May 08:12:41 08:16:17 22° 320° (NW) 08:19:54 436.775 MHz
SO-67 20 May 08:33:40 08:37:17 82° 102° (ESE) 08:40:51 435.3500 MHz FM
KITSAT 1 20 May 09:00:25 09:08:32 74° 242° (WSW) 09:16:36 435.175 FM
ISS 20 May 09:01:52 09:05:04 39° 23° (NNE) 09:08:16 145.800 FM
JAS-1B 20 May 09:04:07 09:10:24 75° 288° (WNW) 09:16:05 435.800 - 435.900 CW/SSB
SO-50 20 May 09:04:43 09:09:08 38° 117° (ESE) 09:13:31 436.795 FM
PCSat 20 May 09:05:17 09:10:29 46° 308° (NW) 09:15:43 145.825 MHz
Hamsat 20 May 09:17:38 09:20:11 16° 297° (WNW) 09:22:44 145.90 MHz
HO-68 20 May 09:26:36 09:32:49 31° 95° (E) 09:38:59 435.675 MHz FM
Oscar 11 20 May 09:32:17 09:34:42 15° 91° (E) 09:37:07 145.825 FM, Beacon 2401.500 USB
JAS-2 20 May 09:37:53 09:43:49 28° 90° (E) 09:49:10 435.800 - 435.900 CW/SSB, 435.910 FM
Sapphire 20 May 09:38:55 09:43:36 29° 314° (NW) 09:48:19 437.095 MHz 1200 baud AX-25 AFSK
ISS 20 May 10:38:39 10:41:46 35° 220° (SW) 10:44:52 145.800 FM
SO-50 20 May 10:45:31 10:49:49 32° 315° (NW) 10:54:05 436.795 FM
PCSat 20 May 10:53:34 10:55:21 12° 330° (NNW) 10:57:08 145.825 MHz
JAS-1B 20 May 10:57:18 10:59:46 13° 311° (NW) 11:02:08 435.800 - 435.900 CW/SSB
KITSAT 1 20 May 10:58:28 11:02:32 15° 261° (W) 11:06:35 435.175 FM
Oscar 11 20 May 11:07:00 11:11:17 55° 287° (WNW) 11:15:32 145.825 FM, Beacon 2401.500 USB
OPAL 20 May 11:07:09 11:12:08 58° 103° (ESE) 11:17:01 ?
MaSat-1 20 May 11:08:23 11:11:21 22° 49° (NE) 11:13:50 437.345 MHz
HO-68 20 May 11:13:52 11:20:48 55° 294° (WNW) 11:27:43 435.675 MHz FM
JAS-2 20 May 11:22:19 11:29:17 55° 292° (WNW) 11:35:26 435.800 - 435.900 CW/SSB, 435.910 FM
Oscar 19 20 May 12:00:03 12:01:13 11° 55° (NE) 12:02:22 437.125 CW, 437.150 USB
UOSAT-12 20 May 12:22:29 12:26:58 71° 122° (ESE) 12:31:31 437.025 FM, 437.400 FM
Oscar 16 20 May 12:35:17 12:39:30 26° 64° (ENE) 12:43:44 437.025 USB, Beacon 2401.1428
AO-27 20 May 12:38:31 12:42:18 21° 62° (ENE) 12:46:05 436.795 MHz FM
ITAMSAT 1 20 May 12:45:34 12:49:34 23° 63° (ENE) 12:53:36 435.822 SSB
OPAL 20 May 12:47:02 12:50:35 20° 301° (WNW) 12:54:06 ?
MaSat-1 20 May 12:50:55 12:53:12 17° 257° (WSW) 12:55:13 437.345 MHz
HO-68 20 May 13:04:29 13:06:58 12° 314° (NW) 13:09:28 435.675 MHz FM
JAS-2 20 May 13:10:21 13:12:34 12° 314° (NW) 13:14:44 435.800 - 435.900 CW/SSB, 435.910 FM
Saudisat 1A 20 May 13:19:25 13:21:58 15° 33° (NNE) 13:24:29 436.775 MHz
Uribyol 2 20 May 13:26:00 13:31:01 53° 71° (ENE) 13:36:05 436.500 FM
Oscar 19 20 May 13:34:28 13:39:38 72° 73° (ENE) 13:44:50 437.125 CW, 437.150 USB
Uosat F 20 May 13:52:09 13:54:55 15° 59° (ENE) 13:57:42 435.120 FM
AO-Echo 20 May 13:59:45 14:04:08 35° 68° (ENE) 14:08:27 ?
UOSAT-12 20 May 14:04:19 14:07:38 20° 322° (NW) 14:10:58 437.025 FM, 437.400 FM
TMSAT-1 20 May 14:09:20 14:11:26 12° 56° (ENE) 14:13:33 436.925 FM
Oscar 16 20 May 14:13:40 14:18:37 44° 261° (W) 14:23:37 437.025 USB, Beacon 2401.1428
AO-27 20 May 14:16:21 14:21:25 56° 259° (W) 14:26:32 436.795 MHz FM
ITAMSAT 1 20 May 14:23:46 14:28:46 49° 260° (W) 14:33:49 435.822 SSB
Gurwin Techsat 1B 20 May 14:26:56 14:31:13 26° 64° (ENE) 14:35:30 435.225 FM
RS-15 20 May 14:32:36 14:35:06 11° 93° (E) 14:37:34 29.354 - 29.394 USB, Beacon 29.352 USB
Saudisat 1A 20 May 14:57:55 15:02:30 73° 54° (NE) 15:06:58 436.775 MHz
Sapphire 20 May 14:59:30 15:01:56 13° 32° (NNE) 15:04:21 437.095 MHz 1200 baud AX-25 AFSK
Uribyol 2 20 May 15:07:04 15:10:50 20° 268° (W) 15:14:38 436.500 FM
Oscar 19 20 May 15:16:36 15:19:31 15° 271° (W) 15:22:28 437.125 CW, 437.150 USB
AO-7 20 May 15:23:25 15:30:35 34° 56° (ENE) 15:37:47 29.400 - 29.500 MHz
Uosat F 20 May 15:28:07 15:33:07 77° 257° (WSW) 15:38:09 435.120 FM
AO-Echo 20 May 15:38:50 15:42:59 27° 265° (W) 15:47:04 ?
TMSAT-1 20 May 15:45:14 15:50:31 81° 74° (ENE) 15:55:51 436.925 FM
SO-50 20 May 15:56:44 15:58:08 11° 28° (NNE) 15:59:33 436.795 FM
Gurwin Techsat 1B 20 May 16:05:51 16:10:56 46° 261° (W) 16:16:03 435.225 FM
PCSat 20 May 16:08:38 16:13:33 33° 48° (NE) 16:18:27 145.825 MHz
RS-15 20 May 16:33:14 16:44:50 57° 113° (ESE) 16:55:58 29.354 - 29.394 USB, Beacon 29.352 USB
Saudisat 1A 20 May 16:39:20 16:41:35 14° 252° (WSW) 16:43:50 436.775 MHz
Sapphire 20 May 16:41:18 16:46:39 54° 54° (NE) 16:51:57 437.095 MHz 1200 baud AX-25 AFSK
AO-7 20 May 17:14:46 17:22:56 62° 256° (WSW) 17:31:11 29.400 - 29.500 MHz
TMSAT-1 20 May 17:28:37 17:31:06 13° 272° (W) 17:33:36 436.925 FM
SO-50 20 May 17:35:27 17:39:54 49° 50° (NE) 17:44:15 436.795 FM
PCSat 20 May 17:52:00 17:57:05 42° 247° (WSW) 18:02:08 145.825 MHz
JAS-1B 20 May 17:59:39 18:06:32 26° 59° (ENE) 18:12:41 435.800 - 435.900 CW/SSB
STRAND 1 20 May 18:16:34 18:20:33 22° 93° (E) 18:24:32 ?
Sapphire 20 May 18:25:28 18:29:42 24° 253° (WSW) 18:33:56 437.095 MHz 1200 baud AX-25 AFSK
Hamsat 20 May 18:35:43 18:39:45 47° 72° (ENE) 18:43:51 145.90 MHz
RS-15 20 May 18:45:55 18:57:29 52° 317° (NW) 19:08:37 29.354 - 29.394 USB, Beacon 29.352 USB
SO-67 20 May 19:10:56 19:14:12 35° 72° (ENE) 19:17:30 435.3500 MHz FM
UOSAT-12 20 May 19:11:49 19:14:46 17° 36° (NE) 19:17:43 437.025 FM, 437.400 FM
AO-7 20 May 19:15:44 19:17:24 11° 276° (W) 19:19:04 29.400 - 29.500 MHz
SO-50 20 May 19:16:49 19:20:11 21° 248° (WSW) 19:23:30 436.795 FM
JAS-1B 20 May 19:47:01 19:56:26 83° 255° (WSW) 20:04:30 435.800 - 435.900 CW/SSB
JAS-2 20 May 19:51:27 19:56:42 20° 54° (NE) 20:01:57 435.800 - 435.900 CW/SSB, 435.910 FM
STRAND 1 20 May 19:55:04 20:00:00 47° 290° (WNW) 20:04:54 ?
HO-68 20 May 19:57:12 20:03:04 29° 58° (ENE) 20:08:56 435.675 MHz FM
Hamsat 20 May 20:13:35 20:16:07 16° 269° (W) 20:18:41 145.90 MHz
Oscar 11 20 May 20:29:33 20:31:59 15° 62° (ENE) 20:34:26 145.825 FM, Beacon 2401.500 USB
SO-67 20 May 20:45:43 20:47:49 15° 268° (W) 20:49:56 435.3500 MHz FM
OPAL 20 May 20:46:45 20:50:13 18° 58° (ENE) 20:53:41 ?
UOSAT-12 20 May 20:51:00 20:55:37 87° 56° (NE) 21:00:14 437.025 FM, 437.400 FM
RS-15 20 May 21:04:01 21:13:22 27° 349° (N) 21:22:25 29.354 - 29.394 USB, Beacon 29.352 USB
JAS-2 20 May 21:32:52 21:40:33 81° 73° (ENE) 21:48:27 435.800 - 435.900 CW/SSB, 435.910 FM
KITSAT 1 20 May 21:40:24 21:43:33 13° 98° (E) 21:46:42 435.175 FM
JAS-1B 20 May 21:41:44 21:47:42 19° 271° (W) 21:53:14 435.800 - 435.900 CW/SSB
HO-68 20 May 21:43:14 21:50:17 63° 257° (WSW) 21:57:23 435.675 MHz FM
Oscar 11 20 May 22:03:30 22:07:45 58° 259° (W) 22:12:02 145.825 FM, Beacon 2401.500 USB
OPAL 20 May 22:23:25 22:28:36 68° 255° (WSW) 22:33:46 ?
UOSAT-12 20 May 22:33:39 22:35:06 11° 253° (WSW) 22:36:33 437.025 FM, 437.400 FM

Developed and maintained by Chris Peat, Heavens-Above GmbH. Please read the updated FAQ before sending e-mail. Imprint. DLR
